Fort Eustis, VA

10:56 PM EDT on April 26, 2017 (GMT -0400)
Felker Army Air Field

Weather History for KFAF - November, 2011

Change the Weather History Date:

Tuesday, November 8, 2011

  Actual Average Record
Temperature  
Mean Temperature 52 °F -  
Max Temperature 64 °F 60 °F 80 °F (1996)
Min Temperature 41 °F 43 °F 36 °F (2013)
Degree Days  
Heating Degree Days 12    
Growing Degree Days 2 (Base 50)    
Moisture  
Dew Point 44 °F    
Average Humidity 94    
Maximum Humidity 100    
Minimum Humidity 42    
Precipitation  
Precipitation 0.01 in - - ()
Sea Level Pressure  
Sea Level Pressure 30.28 in    
Wind  
Wind Speed 0 mph (SE)    
Max Wind Speed 7 mph    
Max Gust Speed -    
Visibility 4 miles    
Events Fog    
Averages and records for this station are not official NWS values.
T = Trace of Precipitation, MM = Missing Value Source: NWS Daily Summary

Daily Weather History Graph

Daily Weather History Graph

Search for Another Location

Airport or City:

Trip Planner

Search our weather history database for the weather conditions in past years. The results will help you decide how hot, cold, wet, or windy it might be!

Date:

Astronomy

Nov. 08, 2011 Rise Set
Actual Time 6:37 AM EST 5:02 PM EST
Civil Twilight 6:10 AM EST 5:29 PM EST
Nautical Twilight 5:39 AM EST 6:00 PM EST
Astronomical Twilight 5:08 AM EST 6:31 PM EST
Moon 3:40 PM EST (11/8) 4:36 AM EST (11/8)
Length of Visible Light 11h 19m
Length of Day
10h 24m
Waxing Gibbous, 96% of the Moon is Illuminated
Nov 8
Waxing Gibbous
Nov 10
Full
Nov 18
Last Quarter
Nov 25
New
Dec 2
First Quarter

Hourly Weather History & Observations

Time (EST) Temp. Dew Point Humidity Pressure Visibility Wind Dir Wind Speed Gust Speed Precip Events Conditions
12:55 AM 45.5 °F 43.9 °F 94% 30.30 in 10.0 mi Calm Calm - N/A   Clear
1:55 AM 44.2 °F 42.6 °F 94% 30.29 in 10.0 mi Calm Calm - N/A   Clear
2:55 AM 43.0 °F 41.9 °F 96% 30.27 in 5.0 mi Calm Calm - N/A   Clear
3:55 AM 43.3 °F 42.4 °F 97% 30.28 in 10.0 mi Calm Calm - N/A   Clear
4:05 AM 42.8 °F 42.8 °F 100% 30.28 in 2.5 mi Calm Calm - N/A   Clear
4:08 AM 42.8 °F 42.8 °F 100% 30.28 in 1.8 mi Calm Calm - N/A   Clear
4:39 AM 42.8 °F 42.8 °F 100% 30.28 in 2.0 mi Calm Calm - N/A   Clear
4:41 AM 42.8 °F 42.8 °F 100% 30.28 in 3.0 mi Calm Calm - N/A   Clear
4:55 AM 42.4 °F 41.5 °F 97% 30.28 in 10.0 mi Calm Calm - N/A   Clear
5:06 AM 42.8 °F 41.0 °F 93% 30.28 in 2.0 mi Calm Calm - N/A   Clear
5:07 AM 42.8 °F 41.0 °F 93% 30.29 in 1.5 mi Calm Calm - N/A   Clear
5:11 AM 42.8 °F 41.0 °F 93% 30.29 in 0.8 mi Calm Calm - N/A   Clear
5:14 AM 42.8 °F 41.0 °F 93% 30.29 in 0.5 mi Calm Calm - N/A Fog Fog
5:22 AM 42.8 °F 41.0 °F 93% 30.29 in 0.2 mi Calm Calm - N/A Fog Fog
5:23 AM 42.8 °F 41.0 °F 93% 30.29 in 0.5 mi Calm Calm - N/A Fog Fog
5:30 AM 42.8 °F 41.0 °F 93% 30.29 in 0.8 mi Calm Calm - N/A   Clear
5:32 AM 42.8 °F 41.0 °F 93% 30.29 in 1.0 mi Calm Calm - N/A   Clear
5:36 AM 41.0 °F 41.0 °F 100% 30.29 in 0.8 mi Calm Calm - N/A   Clear
5:48 AM 41.0 °F 41.0 °F 100% 30.29 in 2.0 mi Calm Calm - N/A   Clear
5:50 AM 41.0 °F 41.0 °F 100% 30.29 in 3.0 mi Calm Calm - N/A   Clear
5:55 AM 41.5 °F 41.0 °F 98% 30.29 in 7.0 mi Calm Calm - N/A   Clear
6:01 AM 41.0 °F 41.0 °F 100% 30.29 in 2.5 mi Calm Calm - N/A   Clear
6:02 AM 41.0 °F 41.0 °F 100% 30.29 in 1.5 mi Calm Calm - N/A   Clear
6:05 AM 41.0 °F 41.0 °F 100% 30.29 in 0.8 mi Calm Calm - N/A   Clear
6:07 AM 41.0 °F 41.0 °F 100% 30.29 in 0.5 mi Calm Calm - N/A Fog Fog
6:15 AM 41.0 °F 41.0 °F 100% 30.29 in 0.8 mi Calm Calm - N/A   Clear
6:17 AM 41.0 °F 41.0 °F 100% 30.29 in 1.0 mi Calm Calm - N/A   Clear
6:21 AM 41.0 °F 41.0 °F 100% 30.29 in 2.5 mi Calm Calm - N/A   Clear
6:23 AM 41.0 °F 41.0 °F 100% 30.29 in 3.0 mi Calm Calm - N/A   Clear
6:25 AM 41.0 °F 41.0 °F 100% 30.29 in 2.5 mi Calm Calm - N/A   Clear
6:26 AM 41.0 °F 41.0 °F 100% 30.29 in 1.5 mi Calm Calm - N/A   Clear
6:29 AM 41.0 °F 41.0 °F 100% 30.29 in 0.8 mi Calm Calm - N/A   Clear
6:33 AM 41.0 °F 41.0 °F 100% 30.29 in 0.8 mi Calm Calm - N/A   Mist
6:36 AM 41.0 °F 41.0 °F 100% 30.29 in 1.0 mi Calm Calm - N/A   Mist
6:37 AM 41.0 °F 41.0 °F 100% 30.29 in 1.2 mi Calm Calm - N/A   Scattered Clouds
6:39 AM 41.0 °F 41.0 °F 100% 30.29 in 2.5 mi Calm Calm - N/A   Scattered Clouds
6:40 AM 42.8 °F 41.0 °F 93% 30.29 in 4.0 mi Calm Calm - N/A   Scattered Clouds
6:43 AM 42.8 °F 42.8 °F 100% 30.29 in 9.0 mi Calm Calm - N/A   Mostly Cloudy
6:49 AM 42.8 °F 42.8 °F 100% 30.29 in 2.5 mi Calm Calm - N/A   Mostly Cloudy
6:51 AM 42.8 °F 42.8 °F 100% 30.29 in 1.5 mi Calm Calm - N/A   Mostly Cloudy
6:53 AM 42.8 °F 42.8 °F 100% 30.29 in 0.8 mi Calm Calm - N/A   Mist
6:54 AM 42.8 °F 42.8 °F 100% 30.29 in 0.5 mi Calm Calm - N/A Fog Fog
6:55 AM 43.3 °F 42.6 °F 97% 30.29 in 0.5 mi Calm Calm - N/A Fog Fog
6:56 AM 42.8 °F 42.8 °F 100% 30.30 in 0.2 mi Calm Calm - N/A Fog Fog
6:58 AM 42.8 °F 42.8 °F 100% 30.30 in 0.2 mi Calm Calm - N/A Fog Fog
7:55 AM 46.2 °F 45.7 °F 98% 30.31 in 0.2 mi Calm Calm - 0.01 in Fog Fog
8:29 AM 50.0 °F 50.0 °F 100% 30.30 in 0.2 mi Calm Calm - N/A Fog Fog
8:36 AM 50.0 °F 50.0 °F 100% 30.31 in 0.5 mi Calm Calm - N/A Fog Fog
8:41 AM 50.0 °F 50.0 °F 100% 30.31 in 0.8 mi Calm Calm - N/A   Mist
8:43 AM 50.0 °F 50.0 °F 100% 30.31 in 1.0 mi Calm Calm - N/A   Mist
8:44 AM 50.0 °F 50.0 °F 100% 30.31 in 1.2 mi Calm Calm - N/A   Partly Cloudy
8:46 AM 50.0 °F 50.0 °F 100% 30.31 in 2.5 mi Calm Calm - N/A   Partly Cloudy
8:47 AM 50.0 °F 50.0 °F 100% 30.31 in 4.0 mi Calm Calm - N/A   Partly Cloudy
8:55 AM 51.6 °F 51.3 °F 99% 30.31 in 10.0 mi Calm Calm - N/A   Partly Cloudy
9:55 AM 54.3 °F 53.4 °F 97% 30.31 in 10.0 mi Variable 3.5 mph - N/A   Clear
10:55 AM 59.7 °F 57.6 °F 93% 30.30 in 10.0 mi North 3.5 mph - N/A   Clear
11:55 AM 64.9 °F 42.3 °F 44% 30.27 in 10.0 mi East 6.9 mph - N/A   Clear
12:55 PM 64.9 °F 41.2 °F 42% 30.25 in 10.0 mi Variable 6.9 mph - N/A   Clear
1:55 PM 64.2 °F 47.1 °F 54% 30.23 in 10.0 mi South 5.8 mph - N/A   Clear
2:55 PM 63.1 °F 47.5 °F 57% 30.22 in 10.0 mi South 5.8 mph - N/A   Clear
3:55 PM 62.2 °F 45.9 °F 55% 30.22 in 10.0 mi Calm Calm - N/A   Clear
4:55 PM 55.9 °F 46.9 °F 72% 30.22 in 10.0 mi Calm Calm - N/A   Clear
5:55 PM 52.5 °F 46.4 °F 80% 30.23 in 10.0 mi Calm Calm - N/A   Clear
6:55 PM 49.3 °F 46.2 °F 89% 30.23 in 10.0 mi Calm Calm - N/A   Clear
7:55 PM 48.9 °F 45.5 °F 88% 30.23 in 10.0 mi Calm Calm - N/A   Clear
8:55 PM 46.8 °F 45.1 °F 94% 30.23 in 10.0 mi Calm Calm - N/A   Clear
9:55 PM 46.4 °F 45.3 °F 96% 30.24 in 10.0 mi Calm Calm - N/A   Clear
10:55 PM 45.5 °F 43.9 °F 94% 30.23 in 10.0 mi Calm Calm - N/A   Clear
11:55 PM 45.3 °F 43.5 °F 93% 30.22 in 10.0 mi Calm Calm - N/A   Clear